FW2619 Weather Reports


Display with metric or nautical units.
time (UTC)temp
F
wind
direction
speed
MPH
gust
MPH
rain 1hr
in
rain 24hr
in
rain mn
in
humidity
%
barometer
mb
20240222094405 31 160 0.0 0.0 0.00 0.00 0.00 77 1017.4
20240222093910 31 160 0.0 0.0 0.00 0.00 0.00 77 1017.2
20240222093408 31 160 0.0 0.0 0.00 0.00 0.00 77 1017.1
20240222091909 31 160 0.0 0.0 0.00 0.00 0.00 77 1016.7
20240222091407 31 160 0.0 0.0 0.00 0.00 0.00 77 1016.7
20240222090906 31 160 0.0 0.0 0.00 0.00 0.00 76 1016.8
20240222090405 31 160 0.0 0.0 0.00 0.00 0.00 76 1016.9
20240222084910 31 4 0.0 0.0 0.00 0.00 0.00 77 1016.8
20240222084407 31 17 0.0 0.0 0.00 0.00 0.00 77 1016.7
20240222083906 31 17 0.0 0.0 0.00 0.00 0.00 77 1016.7
20240222081408 31 17 0.0 0.0 0.00 0.00 0.00 79 1016.6
20240222080907 32 17 0.0 0.0 0.00 0.00 0.00 79 1016.6
20240222080405 32 17 0.0 0.0 0.00 0.00 0.00 79 1016.7
20240222074906 32 17 0.0 0.0 0.00 0.00 0.00 79 1016.6
20240222073907 33 17 0.0 0.0 0.00 0.00 0.00 78 1016.7
20240222073406 33 17 0.0 0.0 0.00 0.00 0.00 78 1016.6
20240222071405 33 17 0.0 0.0 0.00 0.00 0.00 79 1016.6
20240222070909 33 17 0.0 0.0 0.00 0.00 0.00 79 1016.6
20240222070406 33 17 0.0 0.0 0.00 0.00 0.00 79 1016.5
20240222064907 34 17 0.0 0.0 0.00 0.00 0.00 76 1016.4
20240222063408 35 17 0.0 0.0 0.00 0.00 0.00 74 1016.3
20240222061909 36 17 0.0 0.0 0.00 0.00 0.00 73 1016.2
20240222061406 37 17 0.0 0.0 0.00 0.00 0.00 73 1016.3
20240222060905 37 17 0.0 0.0 0.00 0.00 0.00 72 1016.3
20240222060410 37 17 0.0 0.0 0.00 0.00 0.00 72 1016.3
20240222054905 38 17 0.0 0.0 0.00 0.00 0.00 70 1016.3
20240222054409 38 17 0.0 0.0 0.00 0.00 0.00 70 1016.3
20240222053907 39 17 0.0 0.0 0.00 0.00 0.00 70 1016.3
20240222051907 37 17 0.0 0.0 0.00 0.00 0.00 69 1016.1
20240222051406 37 17 0.0 0.0 0.00 0.00 0.00 68 1015.9
20240222050908 37 17 0.0 0.0 0.00 0.00 0.00 69 1015.6
20240222050408 37 17 0.0 0.0 0.00 0.00 0.00 69 1015.5
20240222044908 37 17 0.0 0.0 0.00 0.00 0.00 67 1015.0
20240222044406 37 17 0.0 0.0 0.00 0.00 0.00 66 1014.8
20240222043905 38 17 0.0 0.0 0.00 0.00 0.00 65 1014.7
20240222043409 38 17 0.0 0.0 0.00 0.00 0.00 65 1014.6
20240222041408 39 17 0.0 0.0 0.00 0.00 0.00 63 1014.2
20240222040406 40 17 0.0 0.0 0.00 0.00 0.00 62 1014.1
20240222034906 41 17 0.0 0.0 0.00 0.00 0.00 61 1014.0
20240222034405 41 17 0.0 0.0 0.00 0.00 0.00 60 1013.9
20240222033907 42 17 0.0 0.0 0.00 0.00 0.00 60 1013.7
20240222033406 42 17 0.0 0.0 0.00 0.00 0.00 60 1013.6
20240222031907 43 17 0.0 0.0 0.00 0.00 0.00 58 1013.3
20240222031405 43 17 0.0 0.0 0.00 0.00 0.00 58 1013.1
20240222030909 43 17 0.0 0.0 0.00 0.00 0.00 57 1013.1
20240222024907 45 17 0.0 0.0 0.00 0.00 0.00 53 1012.7
20240222024405 45 17 0.0 0.0 0.00 0.00 0.00 53 1012.6
20240222023908 46 17 0.0 0.0 0.00 0.00 0.00 52 1012.4
20240222023407 46 17 0.0 0.0 0.00 0.00 0.00 52 1012.3
20240222021907 47 17 0.0 0.0 0.00 0.00 0.00 50 1012.2
20240222021405 47 17 0.0 0.0 0.00 0.00 0.00 48 1012.1
20240222020909 47 17 0.0 0.0 0.00 0.00 0.00 46 1012.0
20240222014908 49 17 0.0 0.0 0.00 0.00 0.00 42 1011.4
20240222014406 50 17 0.0 0.0 0.00 0.00 0.00 40 1011.5
20240222013905 50 37 0.0 0.0 0.00 0.00 0.00 36 1011.5
20240222013404 50 340 0.0 0.0 0.00 0.00 0.00 26 1011.3
20240222011907 52 281 0.0 0.0 0.00 0.00 0.00 20 1010.8
20240222011405 52 281 0.0 0.0 0.00 0.00 0.00 19 1010.8
20240222010408 53 281 0.0 0.0 0.00 0.00 0.00 18 1010.7
20240222004905 55 281 0.0 0.0 0.00 0.00 0.00 16 1010.1
20240222004407 55 270 0.0 0.0 0.00 0.00 0.00 15 1010.0
20240222003906 56 247 0.0 0.0 0.00 0.00 0.00 15 1009.8
20240222003405 56 252 0.0 1.0 0.00 0.00 0.00 15 1009.7
20240222001906 57 262 0.0 0.0 0.00 0.00 0.00 14 1009.7
20240222001405 58 248 0.0 0.0 0.00 0.00 0.00 14 1009.7
20240222000908 58 251 0.0 1.0 0.00 0.00 0.00 14 1009.6
20240222000407 58 266 0.0 1.0 0.00 0.00 0.00 13 1009.5
20240221234908 59 267 2.0 17.0 0.00 0.00 0.00 12 1009.2
20240221234405 60 275 3.0 17.0 0.00 0.00 0.00 12 1009.1
20240221233904 60 251 2.0 14.0 0.00 0.00 0.00 12 1008.9
20240221233408 60 248 2.0 14.0 0.00 0.00 0.00 13 1008.9
20240221231904 62 251 0.0 1.0 0.00 0.00 0.00 13 1008.5
20240221231406 61 270 0.0 1.0 0.00 0.00 0.00 13 1008.4
20240221230905 61 282 0.0 1.0 0.00 0.00 0.00 13 1008.3
20240221230404 60 262 0.0 12.0 0.00 0.00 0.00 13 1008.3
20240221224904 61 252 2.0 14.0 0.00 0.00 0.00 13 1008.0
20240221224407 62 263 1.0 14.0 0.00 0.00 0.00 12 1007.9
20240221223906 62 268 3.0 12.0 0.00 0.00 0.00 13 1007.9
20240221223405 62 268 0.0 13.0 0.00 0.00 0.00 13 1007.9
20240221221904 63 232 4.0 15.0 0.00 0.00 0.00 13 1007.7
20240221221407 63 226 0.0 2.0 0.00 0.00 0.00 13 1007.5
20240221220906 64 225 3.0 12.0 0.00 0.00 0.00 14 1007.5
20240221220405 64 220 1.0 20.0 0.00 0.00 0.00 13 1007.4
20240221214905 64 217 6.0 14.0 0.00 0.00 0.00 14 1007.3
20240221214408 64 235 1.0 14.0 0.00 0.00 0.00 14 1007.3
20240221213907 64 230 3.0 17.0 0.00 0.00 0.00 14 1007.3
20240221213406 64 240 6.0 17.0 0.00 0.00 0.00 14 1007.2
20240221211906 64 229 6.0 17.0 0.00 0.00 0.00 14 1007.1
20240221211405 64 213 4.0 17.0 0.00 0.00 0.00 14 1007.0
20240221210407 65 233 9.0 21.0 0.00 0.00 0.00 14 1007.1
20240221204908 65 237 3.0 15.0 0.00 0.00 0.00 14 1007.1
20240221204405 65 206 1.0 8.0 0.00 0.00 0.00 14 1007.0
20240221203904 65 237 2.0 9.0 0.00 0.00 0.00 14 1007.0
20240221203404 65 249 1.0 12.0 0.00 0.00 0.00 13 1007.1
20240221201904 65 248 1.0 12.0 0.00 0.00 0.00 13 1007.2
20240221201406 65 246 2.0 12.0 0.00 0.00 0.00 13 1007.3
20240221200905 65 257 0.0 2.0 0.00 0.00 0.00 13 1007.4
20240221200404 65 235 0.0 13.0 0.00 0.00 0.00 13 1007.5
20240221194904 65 271 1.0 12.0 0.00 0.00 0.00 13 1007.7
20240221194406 65 231 1.0 12.0 0.00 0.00 0.00 13 1007.7
20240221193905 65 226 4.0 15.0 0.00 0.00 0.00 13 1007.8
20240221193404 65 237 5.0 16.0 0.00 0.00 0.00 13 1007.9
20240221191407 65 240 0.0 2.0 0.00 0.00 0.00 13 1008.4
20240221190905 65 206 3.0 14.0 0.00 0.00 0.00 12 1008.4
20240221190404 64 228 5.0 18.0 0.00 0.00 0.00 13 1008.5
20240221184905 63 240 1.0 8.0 0.00 0.00 0.00 13 1009.0
20240221183906 63 240 6.0 16.0 0.00 0.00 0.00 13 1009.3
20240221181911 63 229 0.0 2.0 0.00 0.00 0.00 13 1009.8
20240221181409 63 207 2.0 14.0 0.00 0.00 0.00 13 1009.9
20240221180908 63 229 3.0 14.0 0.00 0.00 0.00 13 1010.1
20240221180407 63 230 5.0 14.0 0.00 0.00 0.00 14 1010.2
20240221174409 62 249 6.0 20.0 0.00 0.00 0.00 14 1010.6
20240221173907 61 240 5.0 20.0 0.00 0.00 0.00 14 1010.6
20240221171909 60 241 7.0 14.0 0.00 0.00 0.00 15 1010.9
20240221171407 60 230 3.0 14.0 0.00 0.00 0.00 16 1011.1
20240221170910 60 235 0.0 3.0 0.00 0.00 0.00 16 1011.1
20240221170408 59 218 0.0 3.0 0.00 0.00 0.00 16 1011.3
20240221164908 58 239 0.0 2.0 0.00 0.00 0.00 21 1011.4
20240221163906 57 236 1.0 12.0 0.00 0.00 0.00 20 1011.5
20240221163409 56 246 0.0 2.0 0.00 0.00 0.00 24 1011.7
20240221161408 52 171 0.0 0.0 0.00 0.00 0.00 35 1012.0
20240221160907 52 173 0.0 0.0 0.00 0.00 0.00 37 1012.0
20240221160407 51 173 0.0 0.0 0.00 0.00 0.00 40 1012.0
20240221154907 48 181 0.0 0.0 0.00 0.00 0.00 41 1012.4
20240221154411 47 181 0.0 0.0 0.00 0.00 0.00 45 1012.5
20240221153910 45 181 0.0 0.0 0.00 0.00 0.00 48 1012.6
20240221151910 41 181 0.0 0.0 0.00 0.00 0.00 54 1013.0
20240221151407 40 181 0.0 0.0 0.00 0.00 0.00 58 1013.0
20240221150907 40 181 0.0 0.0 0.00 0.00 0.00 57 1013.0
20240221150411 39 181 0.0 0.0 0.00 0.00 0.00 59 1013.0
20240221144907 37 181 0.0 0.0 0.00 0.00 0.00 62 1013.2
20240221144410 37 181 0.0 0.0 0.00 0.00 0.00 63 1013.2
20240221143909 37 181 0.0 0.0 0.00 0.00 0.00 61 1013.0
20240221143408 38 181 0.0 0.0 0.00 0.00 0.00 58 1012.9
20240221141906 37 186 0.0 0.0 0.00 0.00 0.00 56 1012.9
20240221141408 36 186 0.0 0.0 0.00 0.00 0.00 59 1013.0
20240221140906 35 186 0.0 0.0 0.00 0.00 0.00 61 1013.0
20240221134906 31 189 0.0 0.0 0.00 0.00 0.00 74 1013.1
20240221134408 30 191 0.0 0.0 0.00 0.00 0.00 75 1013.1
20240221133406 30 192 0.0 0.0 0.00 0.00 0.00 75 1013.3
20240221131907 30 182 0.0 0.0 0.00 0.00 0.00 75 1013.3
20240221131406 31 182 0.0 0.0 0.00 0.00 0.00 75 1013.4
20240221130909 31 182 0.0 0.0 0.00 0.00 0.00 75 1013.5
20240221130408 31 182 0.0 0.0 0.00 0.00 0.00 75 1013.6
20240221124909 31 182 0.0 0.0 0.00 0.00 0.00 74 1013.7
20240221121408 31 182 0.0 0.0 0.00 0.00 0.00 73 1014.0
20240221120907 31 182 0.0 0.0 0.00 0.00 0.00 73 1014.1
20240221120405 31 182 0.0 0.0 0.00 0.00 0.00 73 1014.2
20240221114906 32 182 0.0 0.0 0.00 0.00 0.00 71 1014.1
20240221114408 32 173 0.0 0.0 0.00 0.00 0.00 70 1014.2
20240221113907 32 159 0.0 0.0 0.00 0.00 0.00 70 1014.2
20240221111906 34 159 0.0 0.0 0.00 0.00 0.00 65 1014.6
20240221111409 35 159 0.0 0.0 0.00 0.00 0.00 65 1014.7
20240221110908 35 159 0.0 0.0 0.00 0.00 0.00 64 1014.8
20240221110407 36 159 0.0 0.0 0.00 0.00 0.00 63 1014.9
20240221104908 37 159 0.0 0.0 0.00 0.00 0.00 60 1015.1
20240221104406 36 159 0.0 0.0 0.00 0.00 0.00 62 1015.2
20240221103910 36 158 0.0 0.0 0.00 0.00 0.00 63 1015.3
20240221103409 36 158 0.0 0.0 0.00 0.00 0.00 62 1015.4
20240221101906 36 158 0.0 0.0 0.00 0.00 0.00 62 1015.5
20240221101407 37 158 0.0 0.0 0.00 0.00 0.00 62 1015.5
20240221100906 36 171 0.0 0.0 0.00 0.00 0.00 63 1015.6
20240221100406 35 178 0.0 0.0 0.00 0.00 0.00 65 1015.7
20240221094910 32 192 0.0 0.0 0.00 0.00 0.00 73 1015.9